Weather History for Centralia, IL

Change the Weather History Date:

Saturday, January 12, 2013

  Actual Average (KSLO) Record (KSLO)
Temperature  
Mean Temperature 48 °F -  
Max Temperature 62 °F 34 °F 66 °F (2005)
Min Temperature 35 °F 18 °F -10 °F (1977)
Degree Days  
Heating Degree Days 16    
Moisture  
Dew Point 48 °F    
Average Humidity 85    
Maximum Humidity 93    
Minimum Humidity 69    
Precipitation  
Precipitation 1.80 in - - ()
Sea Level Pressure  
Sea Level Pressure 29.87 in    
Wind  
Wind Speed 10 mph (WSW)    
Max Wind Speed 20 mph    
Max Gust Speed 29 mph    
Visibility 8 miles    
Events Rain , Thunderstorm    
Averages and records for this station are not official NWS values.
T = Trace of Precipitation, MM = Missing Value Source: NWS Daily Summary

Daily Weather History Graph

Daily Weather History Graph

Search for Another Location

Airport:

Trip Planner

Search our weather history database for the weather conditions in past years. The results will help you decide how hot, cold, wet, or windy it might be!

Date:

Astronomy

Jan. 12, 2013 Rise Set
Actual Time 7:13 AM CST 4:56 PM CST
Civil Twilight 6:44 AM CST 5:25 PM CST
Nautical Twilight 6:11 AM CST 5:58 PM CST
Astronomical Twilight 5:39 AM CST 6:30 PM CST
Moon 7:33 AM CST (1/12) 6:23 PM CST (1/12)
Length of Visible Light 10h 41m
Length of Day
9h 43m
New Moon, 1% of the Moon is Illuminated
Jan 12
New Moon
Jan 18
First Quarter
Jan 26
Full
Feb 3
Last Quarter
Feb 10
New

Hourly Weather History & Observations

Time (CST) Temp. Windchill Dew Point Humidity Pressure Visibility Wind Dir Wind Speed Gust Speed Precip Events Conditions
12:15 AM 54.5 °F - 46.9 °F 76% 29.87 in 10.0 mi South 15.0 mph - N/A   Clear
12:35 AM 54.5 °F - 46.9 °F 76% 29.86 in 10.0 mi South 12.7 mph - N/A   Clear
12:55 AM 54.7 °F - 47.3 °F 76% 29.87 in 10.0 mi South 13.8 mph - N/A   Clear
1:15 AM 55.0 °F - 47.7 °F 76% 29.87 in 10.0 mi SSW 12.7 mph - N/A   Clear
1:35 AM 54.9 °F - 48.2 °F 78% 29.88 in 10.0 mi South 12.7 mph - N/A   Clear
1:55 AM 55.4 °F - 48.2 °F 77% 29.88 in 10.0 mi South 12.7 mph - N/A   Clear
2:15 AM 55.6 °F - 48.7 °F 78% 29.89 in 10.0 mi South 15.0 mph - N/A   Clear
2:35 AM 55.4 °F - 48.7 °F 78% 29.89 in 10.0 mi South 13.8 mph - N/A   Clear
2:55 AM 55.4 °F - 49.1 °F 79% 29.89 in 10.0 mi South 15.0 mph - N/A   Clear
3:15 AM 55.4 °F - 49.1 °F 79% 29.88 in 10.0 mi South 15.0 mph 19.6 mph N/A   Clear
3:35 AM 55.4 °F - 49.3 °F 80% 29.88 in 10.0 mi South 13.8 mph - N/A   Clear
3:55 AM 54.7 °F - 49.1 °F 81% 29.89 in 10.0 mi South 11.5 mph - N/A   Clear
4:15 AM 54.5 °F - 49.1 °F 82% 29.89 in 10.0 mi South 10.4 mph - N/A   Clear
4:35 AM 53.8 °F - 49.1 °F 84% 29.89 in 10.0 mi South 8.1 mph - N/A   Clear
4:55 AM 53.6 °F - 49.1 °F 85% 29.89 in 10.0 mi South 6.9 mph - N/A   Clear
5:15 AM 53.2 °F - 49.1 °F 86% 29.89 in 10.0 mi South 5.8 mph - N/A   Clear
5:35 AM 53.6 °F - 49.3 °F 85% 29.90 in 10.0 mi South 8.1 mph - N/A   Clear
5:55 AM 53.6 °F - 49.3 °F 85% 29.90 in 10.0 mi South 6.9 mph - N/A   Clear
6:15 AM 53.6 °F - 49.3 °F 85% 29.90 in 10.0 mi South 8.1 mph - N/A   Clear
6:35 AM 53.4 °F - 49.3 °F 86% 29.92 in 10.0 mi South 8.1 mph - N/A   Clear
6:55 AM 53.6 °F - 49.5 °F 86% 29.92 in 10.0 mi South 6.9 mph - N/A   Clear
7:15 AM 53.4 °F - 49.3 °F 86% 29.93 in 10.0 mi South 4.6 mph - N/A   Clear
7:35 AM 52.7 °F - 49.1 °F 88% 29.94 in 10.0 mi Calm Calm - N/A   Clear
7:55 AM 53.4 °F - 50.0 °F 88% 29.95 in 10.0 mi Calm Calm - N/A   Clear
8:15 AM 53.6 °F - 50.2 °F 88% 29.96 in 10.0 mi South 3.5 mph - N/A   Clear
8:35 AM 54.1 °F - 50.7 °F 88% 29.95 in 10.0 mi SSE 6.9 mph - N/A   Clear
8:55 AM 54.9 °F - 51.4 °F 88% 29.95 in 10.0 mi South 8.1 mph - N/A   Clear
9:15 AM 55.6 °F - 52.0 °F 88% 29.95 in 10.0 mi South 6.9 mph - N/A   Clear
9:35 AM 57.2 °F - 52.7 °F 85% 29.96 in 10.0 mi South 8.1 mph - N/A   Clear
9:55 AM 57.9 °F - 53.1 °F 84% 29.96 in 10.0 mi South 10.4 mph - N/A   Scattered Clouds
10:15 AM 59.9 °F - 53.6 °F 80% 29.96 in 10.0 mi SSW 6.9 mph - N/A   Mostly Cloudy
10:35 AM 60.1 °F - 53.4 °F 79% 29.96 in 10.0 mi SSW 8.1 mph - N/A   Mostly Cloudy
10:55 AM 61.9 °F - 53.6 °F 74% 29.94 in 10.0 mi SW 6.9 mph - N/A   Scattered Clouds
11:15 AM 62.8 °F - 52.3 °F 69% 29.94 in 10.0 mi WSW 6.9 mph - N/A   Clear
11:35 AM 62.6 °F - 53.6 °F 72% 29.92 in 10.0 mi Calm Calm - N/A   Mostly Cloudy
11:55 AM 62.1 °F - 52.5 °F 71% 29.91 in 10.0 mi Calm Calm - N/A   Overcast
12:15 PM 61.7 °F - 51.6 °F 69% 29.91 in 10.0 mi Calm Calm - N/A   Overcast
12:35 PM 61.7 °F - 52.0 °F 70% 29.91 in 10.0 mi Calm Calm - N/A   Overcast
12:55 PM 61.5 °F - 52.3 °F 72% 29.90 in 10.0 mi Calm Calm - N/A   Overcast
1:15 PM 61.0 °F - 52.7 °F 74% 29.90 in 10.0 mi NNW 4.6 mph - N/A   Overcast
1:35 PM 60.1 °F - 52.3 °F 76% 29.91 in 10.0 mi Calm Calm - N/A   Overcast
1:55 PM 59.7 °F - 52.2 °F 76% 29.88 in 7.0 mi Calm Calm - N/A Rain Rain
2:15 PM 58.1 °F - 53.4 °F 84% 29.89 in 7.0 mi NNW 5.8 mph - 0.02 in Rain Rain
3:15 PM 55.9 °F - 52.9 °F 89% 29.88 in 4.0 mi North 6.9 mph - 0.07 in Rain Rain
3:35 PM 55.6 °F - 53.1 °F 91% 29.87 in 7.0 mi NNE 5.8 mph - 0.11 in Rain Light Rain
3:55 PM 55.6 °F - 52.9 °F 91% 29.85 in 7.0 mi NNE 5.8 mph - 0.13 in Rain Rain
4:15 PM 55.4 °F - 52.7 °F 91% 29.84 in 5.0 mi NNE 4.6 mph - 0.04 in Rain Rain
4:35 PM 54.9 °F - 52.0 °F 90% 29.83 in 5.0 mi NNW 13.8 mph - 0.08 in Rain Rain
4:55 PM 52.0 °F - 49.8 °F 92% 29.83 in 5.0 mi NNW 11.5 mph - 0.16 in Rain Rain
5:15 PM 50.2 °F - 47.8 °F 92% 29.81 in 5.0 mi North 13.8 mph - 0.03 in Rain Rain
5:35 PM 49.5 °F - 47.3 °F 92% 29.81 in 7.0 mi North 11.5 mph - 0.06 in Rain Rain
5:55 PM 49.1 °F - 46.9 °F 92% 29.82 in 7.0 mi NNW 11.5 mph - 0.11 in Rain , Thunderstorm Rain
6:15 PM 48.2 °F - 46.0 °F 92% 29.81 in 5.0 mi North 18.4 mph 21.9 mph 0.08 in Rain Heavy Rain
6:35 PM 47.3 °F - 45.0 °F 92% 29.79 in 5.0 mi NNE 11.5 mph - 0.16 in Rain , Thunderstorm Heavy Thunderstorms and Rain
6:55 PM 46.4 °F 40.7 °F 44.1 °F 92% 29.76 in 5.0 mi NE 12.7 mph 17.3 mph 0.22 in Rain , Thunderstorm Rain
7:15 PM 46.4 °F 41.9 °F 43.9 °F 91% 29.79 in 7.0 mi NNE 9.2 mph - 0.05 in Rain Rain
7:35 PM 45.7 °F 41.0 °F 43.5 °F 92% 29.79 in 5.0 mi WNW 9.2 mph - 0.13 in Rain Heavy Rain
7:55 PM 45.0 °F 40.6 °F 43.0 °F 93% 29.78 in 4.0 mi North 8.1 mph - 0.31 in Rain , Thunderstorm Heavy Thunderstorms and Rain
8:15 PM 44.8 °F 37.7 °F 42.8 °F 93% 29.79 in 2.0 mi NW 16.1 mph - 0.24 in Rain Heavy Rain
8:35 PM 43.2 °F 35.3 °F 41.2 °F 93% 29.78 in 4.0 mi NNW 17.3 mph - 0.35 in Rain Heavy Rain
8:55 PM 42.4 °F 34.1 °F 40.3 °F 92% 29.80 in 5.0 mi NW 18.4 mph 21.9 mph 0.42 in Rain , Thunderstorm Rain
9:15 PM 41.2 °F 34.1 °F 38.8 °F 91% 29.82 in 5.0 mi NW 12.7 mph 24.2 mph 0.05 in Rain Heavy Rain
9:35 PM 40.5 °F 31.8 °F 38.3 °F 92% 29.80 in 5.0 mi NNW 17.3 mph 26.5 mph 0.13 in Rain , Thunderstorm Rain
9:55 PM 40.1 °F 31.3 °F 37.8 °F 91% 29.78 in 7.0 mi North 17.3 mph 23.0 mph 0.18 in Rain Rain
10:15 PM 39.2 °F 30.2 °F 37.4 °F 93% 29.80 in 10.0 mi NNW 17.3 mph 28.8 mph N/A Rain Light Rain
10:35 PM 38.5 °F 28.6 °F 35.8 °F 90% 29.79 in 10.0 mi North 19.6 mph 26.5 mph 0.03 in Rain Rain
10:55 PM 38.1 °F 30.2 °F 35.8 °F 91% 29.83 in 10.0 mi NW 12.7 mph 19.6 mph 0.05 in Rain Rain
11:15 PM 37.4 °F 27.8 °F 34.9 °F 91% 29.85 in 4.0 mi NW 17.3 mph 21.9 mph 0.07 in Rain Heavy Rain
11:35 PM 35.8 °F 25.4 °F 33.3 °F 91% 29.85 in 5.0 mi NW 18.4 mph 24.2 mph 0.14 in Rain Heavy Rain
11:55 PM 35.2 °F 26.2 °F 32.9 °F 91% 29.89 in 5.0 mi NW 13.8 mph 24.2 mph 0.20 in Rain Rain